Wind_Speed
37 39 39 39 39 40 40 40 39 37 35 34 34 34 34 32 31 29 28 27 27 27 28 27 26 27 27 27 27 26 27 27 27 27 27 27 26 24 23 24 25 25 24 24 23 22 23 23 22 21 20 20 20 19 19 17 16 17 17 16 17 16 16 14 10 8 10 10 7 7 12 14 14 13 12 13 14 14 15 16 16 16 15 15 16
38 40 40 40 41 41 40 41 40 37 35 35 35 34 33 33 32 30 29 29 28 28 29 29 28 27 27 28 28 28 28 28 28 28 28 28 28 26 24 25 26 26 25 26 25 24 24 25 24 23 22 21 22 21 21 19 18 19 19 19 19 19 19 18 14 11 10 11 12 11 11 12 13 13 13 13 13 13 15 16 16 17 16 14 14
37 39 39 39 41 41 40 40 39 38 36 35 35 34 33 33 33 31 29 29 29 29 28 29 29 29 28 29 29 29 29 30 29 29 29 30 29 28 26 26 27 28 27 27 27 26 25 26 26 25 23 23 23 23 22 21 21 21 21 21 21 20 20 20 18 15 13 12 13 15 14 12 11 11 12 14 14 13 14 14 14 15 16 15 15
36 37 37 36 38 39 39 37 37 37 36 34 34 34 32 32 33 33 31 28 29 30 29 29 29 30 30 29 30 30 30 31 31 31 31 31 31 30 28 27 28 29 29 29 29 29 28 27 27 26 25 25 25 25 24 23 23 22 22 23 23 21 21 22 22 18 15 14 14 16 18 17 15 13 11 12 15 15 15 14 14 14 15 15 15
35 36 36 35 35 37 37 35 35 36 35 34 33 34 32 31 31 33 33 31 29 30 31 30 29 31 32 31 31 32 32 32 32 32 31 32 32 31 30 29 29 29 30 30 30 30 30 29 28 27 27 26 26 27 27 26 25 24 24 24 24 23 22 22 24 22 18 16 16 16 17 17 17 18 16 14 15 17 16 16 16 16 16 16 15
34 34 34 34 35 36 36 35 34 35 35 33 32 33 32 31 30 31 33 33 31 30 30 32 31 31 32 33 32 32 33 32 33 33 32 31 31 31 30 30 30 30 30 30 30 30 30 30 29 28 29 29 28 28 28 28 27 26 25 25 25 25 23 22 23 24 23 19 17 16 17 17 18 18 19 18 17 17 18 18 18 18 17 17 17
34 34 33 33 35 35 36 37 36 35 36 35 33 32 33 32 31 30 31 32 32 31 30 31 32 32 33 33 33 33 33 33 33 33 32 31 31 30 29 29 30 30 31 30 30 30 30 30 30 30 30 31 30 29 29 29 29 28 27 27 26 25 25 24 23 24 25 23 19 18 17 19 20 19 18 19 19 18 19 19 19 20 19 19 19
33 34 33 33 35 36 37 37 38 37 37 37 35 33 33 33 32 32 31 31 31 31 31 31 32 33 33 34 34 33 33 33 33 33 33 32 30 30 30 29 30 30 30 30 30 30 30 30 30 31 32 33 32 31 31 31 30 30 29 28 27 27 26 26 24 23 24 23 22 21 19 19 21 20 18 18 20 21 22 21 20 21 21 22 22
32 33 34 34 34 37 36 36 38 38 37 37 38 36 34 34 34 33 32 31 30 31 31 30 31 32 32 33 33 33 33 34 35 34 34 34 32 31 31 31 31 30 30 30 30 30 30 29 30 31 33 35 35 34 33 33 33 33 32 31 30 29 27 26 26 25 24 22 22 22 21 20 21 23 22 22 23 24 24 22 21 20 21 22 23
32 32 33 34 33 34 36 35 35 37 37 37 38 37 35 33 33 34 33 33 31 31 31 30 30 31 32 32 32 33 34 35 37 38 37 37 35 34 32 32 32 31 30 30 30 31 31 30 30 31 33 36 37 37 36 36 36 37 36 35 34 32 30 28 27 27 25 23 23 22 21 21 23 25 25 26 26 25 23 22 22 21 20 19 20
33 33 32 32 32 33 35 35 34 35 37 36 36 37 36 35 34 34 34 34 32 32 31 31 31 30 30 32 33 34 36 36 38 40 41 40 39 37 35 33 33 33 32 31 31 31 31 32 32 32 34 36 38 39 39 39 39 38 37 37 37 36 35 32 30 29 28 25 25 24 23 23 25 26 26 26 26 25 25 24 23 21 20 17 16
31 33 32 31 33 33 33 34 34 35 36 36 36 37 37 36 35 34 35 35 34 32 31 32 33 31 30 31 33 34 36 37 39 41 42 43 42 40 37 35 34 34 34 33 33 32 32 33 33 33 34 37 39 41 42 42 42 40 38 38 39 39 40 39 36 33 31 29 27 27 27 26 26 27 27 27 27 27 26 25 24 24 22 20 18
28 32 33 33 33 33 32 33 34 34 35 36 35 35 36 37 36 35 35 35 34 33 33 33 34 33 32 31 32 34 34 36 38 41 43 44 45 43 39 36 35 35 35 35 35 35 35 34 34 34 34 36 39 42 44 44 44 43 42 40 41 41 42 42 41 38 36 33 30 30 31 29 28 30 30 28 28 28 28 27 26 25 24 23 23
26 29 32 32 32 33 32 32 32 32 32 33 34 34 35 37 37 35 33 33 34 34 35 34 33 34 34 32 32 33 34 34 37 40 43 44 45 45 42 38 36 36 36 37 37 37 37 36 35 36 35 35 39 43 45 46 46 46 45 44 44 43 43 44 44 42 39 36 34 34 34 32 31 31 31 30 30 29 29 29 29 27 26 25 24
25 27 30 31 31 32 32 31 31 30 31 32 32 33 34 34 34 33 31 32 34 35 35 34 33 34 35 35 33 32 32 33 35 39 42 43 44 46 45 41 36 35 35 36 37 38 38 38 37 37 37 36 39 41 43 45 46 47 48 47 46 45 44 46 47 45 43 40 38 36 35 35 34 31 30 31 32 30 28 28 29 28 25 23 21
26 25 28 30 31 31 31 30 29 30 30 31 31 32 32 32 32 33 31 30 31 32 33 33 33 33 34 35 34 33 32 33 35 38 40 42 43 45 47 44 39 36 35 35 36 37 37 37 38 38 38 39 39 40 42 42 42 44 46 47 45 44 45 48 49 48 47 45 42 38 35 34 34 33 30 30 31 31 27 24 23 24 22 19 17
27 25 26 29 30 30 30 29 29 29 30 30 31 31 31 30 30 31 31 28 27 29 30 31 32 32 32 33 34 35 34 33 34 36 38 40 43 45 48 46 42 39 38 36 34 35 35 37 38 38 39 40 40 40 41 41 41 41 43 45 44 43 44 46 48 49 50 48 46 43 38 34 33 33 32 31 29 29 28 24 21 22 20 16 14
28 26 25 28 30 30 29 29 29 30 30 30 30 30 29 29 29 30 30 29 27 26 27 29 30 31 32 32 33 34 34 33 34 35 36 38 42 45 47 46 42 41 41 38 35 33 34 36 39 40 40 39 39 40 41 43 43 40 40 42 42 42 45 44 43 46 51 51 49 46 43 38 33 32 33 33 31 30 30 28 24 22 20 17 15
27 26 25 26 29 29 29 29 30 30 30 30 29 29 29 28 28 28 29 30 28 26 25 26 28 30 31 31 32 33 33 33 34 36 37 37 39 44 46 44 41 40 38 36 34 34 34 35 37 40 41 39 38 40 42 45 46 43 41 40 40 44 48 46 41 42 47 51 52 49 46 43 39 35 33 32 33 32 33 32 28 25 23 21 20
25 26 25 25 28 29 28 29 29 29 29 29 28 28 28 27 26 27 27 28 28 27 26 26 26 27 28 29 30 32 32 32 32 35 37 36 37 41 42 41 39 37 35 32 31 32 34 35 36 38 41 41 41 41 42 45 49 48 44 41 42 46 47 44 43 43 43 47 52 51 48 46 43 40 37 34 32 31 32 34 32 30 27 24 23
23 25 24 24 26 28 28 28 29 28 27 28 27 27 27 26 26 26 26 26 26 27 27 26 25 25 26 26 26 28 30 31 31 32 34 34 35 38 41 41 37 34 32 30 30 30 32 35 36 36 38 41 43 44 44 45 49 51 48 46 48 48 42 39 43 43 40 42 46 47 46 44 42 42 41 38 35 32 33 34 35 33 30 25 21
23 24 24 24 25 26 26 27 28 27 26 26 26 26 26 26 26 26 25 24 25 25 25 25 24 23 23 24 24 25 26 27 29 31 32 32 32 35 39 41 38 35 32 30 31 32 32 34 35 36 37 39 42 45 47 48 48 51 52 52 50 45 39 37 38 38 38 38 39 41 43 42 41 41 40 40 39 37 35 34 34 33 29 24 20
22 23 23 24 24 24 26 26 27 26 25 26 26 25 25 25 25 25 25 23 22 22 22 22 22 21 21 22 22 22 22 23 25 28 30 31 31 32 36 39 40 38 35 33 33 34 34 35 35 35 36 37 39 42 47 51 52 53 55 55 51 46 41 37 35 35 36 36 36 38 40 41 41 40 40 40 39 39 37 34 32 31 28 24 21
21 23 23 23 23 23 24 25 25 25 24 24 25 24 23 24 23 23 24 22 20 20 20 20 20 19 18 18 18 18 19 18 20 22 24 26 27 29 32 35 39 41 41 37 36 35 34 35 36 36 36 38 39 40 42 48 53 57 58 56 54 49 44 39 36 34 34 34 35 36 38 40 41 40 40 39 36 35 37 33 30 30 29 26 24
19 20 20 21 21 21 21 22 23 22 22 23 23 22 22 22 21 22 23 22 19 18 18 18 18 17 16 15 15 15 15 16 17 17 18 21 24 27 30 32 35 40 42 41 39 38 37 37 37 37 37 38 39 40 42 45 50 56 60 59 58 54 48 43 39 35 33 34 36 36 37 39 40 39 40 39 35 34 35 33 29 28 29 27 25
16 17 17 18 19 19 19 19 20 20 19 20 21 21 21 21 20 19 20 20 18 16 15 15 15 14 14 15 14 14 14 15 13 10 9 11 16 20 25 29 33 39 44 44 42 40 39 38 39 40 41 42 42 42 44 46 49 53 58 61 61 58 52 46 42 38 36 35 35 36 36 37 38 38 38 38 37 37 37 35 32 30 30 28 26
14 14 15 16 17 18 19 19 19 19 18 19 19 19 20 20 19 18 17 17 16 14 13 13 14 14 14 14 14 15 14 8 3 3 4 4 4 7 10 15 20 27 34 40 43 44 43 42 42 42 43 46 47 48 49 49 48 49 55 60 62 60 55 51 47 44 42 38 36 36 36 35 35 36 38 39 39 38 39 38 36 33 32 30 27
13 13 14 15 16 17 17 18 19 18 17 16 15 17 19 19 16 15 15 15 15 14 14 13 12 10 9 7 7 6 3 5 8 7 7 8 8 7 7 8 11 15 19 25 31 36 39 42 44 44 43 43 45 47 48 48 46 45 50 57 61 59 56 53 50 46 43 40 36 34 34 34 36 37 39 39 36 36 40 40 38 35 33 30 27
11 12 13 14 14 14 15 17 19 17 14 13 11 10 12 16 16 15 12 10 11 12 11 10 8 7 6 6 6 6 8 10 9 8 8 8 8 8 6 6 9 13 16 19 22 25 27 31 35 38 38 38 39 41 43 43 42 41 44 49 53 53 52 51 47 43 40 38 35 35 36 37 37 38 38 36 34 36 40 39 35 34 33 30 26
10 12 12 13 13 14 13 13 13 15 19 22 22 20 17 14 16 17 14 12 11 10 10 12 10 8 9 9 8 8 9 9 8 8 8 8 9 10 9 9 10 11 14 17 20 23 25 26 29 31 32 33 34 37 39 39 38 38 40 41 43 45 48 47 44 40 38 36 34 36 39 38 38 39 39 37 35 37 38 36 34 34 34 30 26
9 8 8 9 12 14 13 10 9 13 20 23 23 25 26 24 21 19 16 13 12 11 11 12 10 9 10 11 11 10 10 9 8 8 9 10 11 13 14 16 17 18 18 16 16 18 22 25 27 29 30 30 32 35 36 35 35 37 39 39 41 45 47 47 45 43 42 40 37 37 39 40 39 39 38 36 35 35 35 34 32 32 32 31 28
13 13 12 12 11 10 11 13 13 14 18 19 20 23 23 22 22 22 21 19 17 15 15 15 14 14 13 13 12 11 9 8 8 10 10 12 13 15 17 20 20 19 19 17 15 15 17 20 23 25 26 28 31 34 35 35 36 37 38 38 41 45 50 52 51 48 46 44 41 39 40 41 41 39 37 36 36 35 35 35 32 28 27 28 27
16 17 16 16 16 16 15 15 13 13 14 16 18 19 19 17 16 18 21 21 19 18 17 16 15 15 15 14 12 11 10 9 10 12 13 14 15 17 19 20 18 16 16 16 15 16 17 18 21 23 24 26 28 30 32 35 37 38 39 40 42 45 48 49 50 48 46 45 43 41 40 41 41 40 39 39 38 37 36 36 32 27 25 25 26
18 18 17 17 17 16 15 15 14 14 15 15 15 16 16 17 17 17 17 16 15 15 15 14 13 13 13 13 12 11 10 9 11 12 13 15 17 18 20 20 16 13 15 16 16 17 18 20 22 23 24 24 26 28 30 33 35 36 38 41 42 44 45 44 45 47 47 46 45 44 42 40 40 41 40 39 38 37 37 37 34 30 28 26 27
18 16 15 15 15 14 13 13 13 15 17 17 17 15 14 14 14 14 13 11 11 12 13 12 11 11 12 12 11 11 9 8 10 11 11 13 15 17 19 17 14 13 17 18 18 18 20 23 25 27 27 27 29 29 31 33 34 34 36 38 39 40 42 43 46 49 47 45 44 44 43 42 41 42 41 39 37 36 35 35 34 32 30 28 27
16 15 14 14 14 13 13 13 14 15 16 16 15 13 12 12 13 12 12 11 10 10 12 12 11 10 9 9 10 10 8 6 8 8 6 8 13 16 15 14 13 14 17 18 17 18 20 22 25 28 28 29 30 32 33 34 35 35 35 36 37 38 39 39 39 38 39 41 42 42 41 41 41 41 39 37 35 34 33 34 33 32 31 30 27
14 14 14 15 14 14 14 15 16 16 16 14 14 13 12 12 12 12 13 12 8 9 12 12 10 8 8 8 11 12 9 6 8 8 6 7 11 13 12 12 13 14 16 17 18 19 21 22 23 26 27 29 30 32 32 34 35 36 37 37 35 35 35 34 32 30 30 33 38 41 43 42 42 43 40 36 34 33 33 32 31 30 30 30 27
17 16 15 15 15 15 14 14 14 15 14 13 13 12 12 12 11 11 12 11 8 8 10 8 6 7 7 8 12 14 10 8 8 10 9 9 10 10 11 13 14 14 14 16 19 21 22 22 23 25 26 27 28 27 27 28 29 30 31 30 25 21 20 19 25 33 34 31 31 35 40 41 41 42 42 39 36 34 34 33 30 28 28 29 27
17 19 19 18 16 15 14 13 13 13 13 13 13 12 11 11 10 9 10 10 8 6 6 6 7 8 8 8 11 13 10 8 9 10 10 10 11 11 11 12 14 14 14 15 18 21 22 22 24 26 26 26 25 23 21 19 16 14 14 12 10 9 8 10 17 22 24 21 18 21 28 32 32 34 37 37 35 34 34 33 31 29 28 28 26
14 15 16 16 16 17 16 14 13 13 13 13 13 12 11 10 10 9 9 8 7 5 4 5 7 8 6 9 12 12 9 7 8 10 10 10 11 13 13 12 12 14 15 15 17 19 20 21 23 24 24 23 22 21 20 17 13 12 13 12 10 10 13 15 15 16 19 23 25 27 29 30 30 30 32 33 34 34 34 33 31 29 28 27 26
12 11 10 10 11 14 15 13 12 13 15 15 13 10 9 9 8 7 7 6 5 4 3 3 7 8 8 11 14 13 10 8 8 10 11 11 11 12 13 12 12 14 15 15 15 17 18 18 19 20 20 20 20 19 19 19 17 15 13 16 23 25 24 23 22 23 25 27 27 28 28 29 30 29 28 30 31 31 30 29 28 27 26 26 26
12 12 12 12 12 13 14 14 14 14 15 14 12 9 7 7 6 4 5 4 4 2 3 5 8 8 9 12 13 12 10 8 7 8 10 11 12 12 13 13 13 14 15 14 13 13 14 15 15 15 16 17 18 17 17 18 18 18 17 15 19 25 28 29 30 29 27 26 25 25 26 27 27 26 26 27 28 26 26 26 25 24 25 25 25
13 14 16 18 19 19 18 17 16 15 14 13 13 13 12 12 12 10 9 10 11 9 8 9 9 7 9 11 11 10 9 8 8 9 8 9 11 12 13 13 12 13 14 13 12 11 11 11 12 12 13 14 14 13 13 13 14 15 16 17 18 20 22 26 29 31 30 29 26 25 25 25 24 24 24 24 24 23 23 22 20 19 22 24 24
18 18 18 19 19 18 18 17 15 14 13 12 13 16 16 16 15 15 15 15 16 16 15 14 12 10 9 10 10 10 9 9 10 9 9 9 10 11 12 12 12 13 13 12 10 9 8 8 9 10 10 10 10 9 9 10 10 11 13 16 18 19 20 22 25 27 28 28 26 25 25 24 23 23 21 21 20 19 17 16 17 19 22 23 22
20 20 21 21 20 20 21 21 19 19 18 16 16 18 19 18 18 18 19 18 17 16 16 16 15 13 11 10 10 11 11 12 12 12 10 10 9 9 10 11 12 12 11 10 8 7 6 6 7 8 10 10 9 9 10 12 13 13 13 15 17 19 19 20 21 23 24 25 25 25 24 22 22 21 20 19 18 17 16 16 18 21 22 22 20
22 22 22 22 22 21 22 22 21 21 21 19 18 18 19 18 18 18 18 18 17 15 15 15 15 15 14 13 13 13 14 14 14 14 13 12 9 7 8 10 10 9 9 7 6 5 5 6 7 8 10 11 11 11 12 12 13 13 13 13 15 16 17 18 20 22 23 24 24 24 23 21 20 20 19 17 16 16 17 17 17 17 18 18 18
24 23 22 22 21 21 21 21 21 20 20 19 19 18 17 17 17 17 17 17 16 16 16 16 16 16 16 16 16 16 16 15 15 15 15 13 9 8 9 10 9 7 6 6 6 6 6 7 9 10 10 10 10 11 12 12 12 11 12 12 14 15 16 16 18 19 21 22 23 24 23 22 20 20 18 17 15 15 15 15 14 14 14 14 13
23 23 22 22 21 21 20 20 20 19 18 18 18 18 17 16 16 15 15 16 16 16 17 18 18 18 19 19 20 20 19 18 17 17 17 15 12 9 9 8 6 5 5 5 5 5 6 8 10 11 10 10 10 11 11 11 12 12 13 14 15 15 16 17 18 19 20 21 21 21 20 19 18 18 16 15 14 13 12 12 13 13 12 12 12
23 22 22 21 22 22 21 20 19 19 18 18 17 18 17 17 16 16 16 16 17 18 18 18 19 19 20 21 22 23 22 21 19 19 19 19 17 13 8 5 5 5 4 3 5 7 10 11 12 12 12 11 11 11 12 12 13 14 14 14 14 14 15 15 15 16 16 16 16 16 15 15 15 16 15 13 12 11 9 10 11 12 12 12 11
25 24 22 22 22 22 22 22 21 20 18 17 17 17 17 17 17 18 18 18 18 18 19 19 20 22 24 24 24 23 23 21 20 19 20 22 22 19 12 7 5 5 6 8 10 10 11 12 11 11 11 11 10 11 11 12 12 12 11 12 11 11 10 11 11 11 12 13 13 13 13 12 12 14 14 12 10 9 8 8 10 11 12 11 10
26 25 24 23 23 22 22 23 22 21 19 18 17 17 17 18 18 18 19 19 18 18 19 19 20 22 25 27 26 26 25 24 23 22 23 24 25 23 19 14 9 5 6 8 9 8 9 10 10 9 9 9 9 8 6 7 8 9 9 10 11 10 10 11 12 13 14 14 13 12 11 10 10 12 13 11 8 8 9 9 9 10 10 10 9
Wind_Direction
189 191 193 194 195 197 199 201 202 202 202 202 203 205 207 208 208 208 208 208 207 208 208 205 203 203 204 205 206 206 207 207 207 208 207 208 210 210 210 210 209 209 209 210 210 210 212 213 214 217 217 216 219 221 221 225 225 220 219 221 224 222 221 224 229 238 242 239 225 183 183 197 203 204 210 215 218 220 223 229 230 233 243 249 252
191 193 194 195 196 197 198 200 201 202 202 203 205 206 206 207 208 207 207 208 208 208 208 208 205 204 204 205 206 206 207 208 207 207 208 210 210 211 211 211 211 210 209 210 211 211 212 214 214 215 216 216 217 218 219 220 219 217 217 219 222 222 221 222 222 228 237 233 225 215 201 196 202 207 208 211 219 220 222 230 234 232 236 242 247
193 195 196 196 197 198 198 199 200 200 201 202 204 205 205 207 208 207 207 208 208 208 208 208 207 206 205 206 206 207 208 209 208 208 209 211 211 212 212 213 212 211 211 211 211 211 211 212 214 214 214 216 217 217 217 218 217 214 214 216 219 220 221 221 219 221 228 227 222 221 217 212 209 210 213 217 221 225 230 234 234 230 231 235 238
193 194 196 198 197 198 198 197 197 197 198 199 202 203 204 206 207 207 207 208 208 209 209 208 208 207 207 207 207 208 208 209 209 209 210 212 213 213 213 214 215 214 214 214 213 213 211 212 213 213 213 214 215 216 216 217 218 215 213 213 216 218 219 220 220 220 223 227 224 219 222 228 226 217 219 222 220 224 231 231 229 229 228 231 237
192 191 193 195 196 197 197 195 194 195 197 199 200 202 202 203 206 207 208 208 208 208 209 208 208 208 207 207 208 209 209 210 210 210 212 213 214 215 214 215 216 216 217 217 216 215 214 214 214 212 211 212 214 215 215 217 218 217 215 213 213 216 217 219 219 219 221 227 228 224 221 223 222 219 220 222 220 223 228 231 232 231 227 229 235
193 190 191 193 195 197 197 197 196 197 199 200 201 202 203 203 204 204 206 208 209 209 208 208 208 209 209 209 209 210 210 210 210 211 212 214 215 216 216 217 218 219 219 220 219 218 217 217 216 213 211 212 213 214 215 216 218 218 217 214 214 213 215 217 217 216 219 225 228 227 222 216 213 215 219 223 223 220 221 228 232 232 231 230 230
194 191 191 193 195 196 198 199 200 200 201 203 203 204 205 205 204 203 204 206 208 209 207 207 208 210 210 210 210 211 211 211 212 212 213 214 215 216 217 218 220 220 221 221 222 221 220 219 218 216 214 214 214 214 214 215 216 219 218 216 214 212 213 215 215 213 215 221 226 227 224 219 214 214 217 220 222 223 221 222 226 228 230 230 228
194 192 192 195 196 197 199 200 201 202 204 205 205 206 206 206 206 205 204 205 207 209 207 205 206 208 210 211 211 211 211 211 212 213 213 215 216 216 217 219 220 221 222 222 222 222 222 221 220 219 218 217 216 214 214 214 214 216 218 216 214 211 211 212 213 213 212 215 220 224 225 223 217 215 215 212 214 222 222 220 222 225 227 230 230
195 193 193 196 197 197 199 201 202 204 204 204 205 206 207 208 208 207 206 205 207 210 211 208 206 206 209 211 211 211 212 212 213 213 213 214 216 217 218 219 220 221 221 221 221 222 222 221 222 222 221 220 219 217 216 215 214 215 215 214 212 211 210 210 211 212 211 211 214 217 220 222 216 212 211 210 213 219 221 221 224 228 227 228 231
194 195 196 198 198 197 198 201 202 203 204 204 205 206 207 208 209 209 209 208 207 209 212 213 210 207 207 208 210 211 213 214 215 215 214 214 216 218 219 219 220 221 221 221 220 221 222 222 223 223 222 221 221 220 218 218 218 218 216 214 211 209 208 208 210 210 210 210 211 210 212 218 216 212 211 213 216 219 219 218 222 227 225 224 229
193 197 198 197 198 197 198 200 201 202 204 204 204 205 206 207 209 210 210 210 209 208 210 213 214 212 207 206 209 212 214 216 217 216 216 217 217 217 218 219 220 221 222 221 221 221 222 223 225 225 224 222 222 222 220 220 221 221 219 217 215 212 208 208 209 209 209 211 212 210 211 215 216 214 214 214 215 216 217 216 219 222 220 220 225
193 196 198 197 198 199 198 199 200 201 203 203 204 204 205 207 208 209 209 209 209 209 208 210 214 215 211 206 208 213 217 218 218 218 218 219 219 218 218 219 219 221 222 222 222 222 222 223 224 225 225 224 222 222 221 221 222 222 220 220 220 217 214 213 211 209 209 210 212 212 213 214 214 214 214 212 211 213 214 214 216 218 218 221 224
196 194 197 197 197 199 199 199 200 201 201 202 203 203 203 205 207 208 209 208 209 209 210 211 212 215 215 211 209 213 218 220 219 219 220 221 222 220 219 219 220 221 222 223 223 223 223 223 223 224 227 226 224 223 221 221 222 222 221 221 221 221 219 219 218 215 212 211 213 214 215 214 213 214 213 211 210 210 210 211 214 216 216 219 223
201 195 196 197 196 197 199 200 201 202 201 200 201 201 202 205 207 208 208 208 208 210 211 212 212 213 216 217 215 215 218 220 221 221 222 223 224 223 221 221 222 223 224 224 224 224 224 223 222 223 225 226 225 223 221 220 220 221 220 220 221 221 221 220 221 219 217 216 216 218 218 216 216 217 215 212 210 209 208 208 210 213 215 219 224
206 197 195 196 196 196 198 200 201 202 201 200 200 201 203 205 206 206 207 208 209 211 212 213 213 214 216 219 221 221 220 221 222 223 224 225 225 225 224 223 224 225 226 226 226 226 226 225 225 226 226 227 226 224 221 219 220 220 220 220 222 222 222 222 221 220 218 218 220 221 221 220 220 220 217 215 214 214 214 213 213 214 216 218 220
209 202 195 195 195 195 196 197 198 201 201 200 201 202 203 204 205 205 207 209 212 213 213 214 215 216 217 219 222 225 225 225 225 225 225 225 225 225 225 225 226 229 230 229 229 228 228 227 227 228 228 229 229 227 223 220 219 219 219 220 222 223 224 226 225 223 221 221 222 223 223 222 222 222 220 217 217 217 217 216 212 209 206 206 209
209 206 197 195 195 195 195 195 197 199 199 199 201 203 203 203 204 205 206 209 212 212 213 215 216 218 219 220 222 226 228 228 229 229 228 225 224 224 225 224 226 230 232 232 232 231 230 230 229 230 230 230 230 230 226 221 219 220 219 220 222 223 225 227 227 226 224 224 225 225 223 223 222 222 221 219 218 216 212 208 204 199 197 199 204
208 207 200 196 195 194 194 195 197 199 199 199 201 201 202 203 204 205 205 207 211 212 213 215 217 218 220 221 223 226 228 230 232 234 233 228 223 223 224 224 225 230 233 234 235 235 234 234 232 231 232 232 230 230 227 221 219 219 219 220 221 223 225 226 225 225 225 224 225 226 224 222 221 220 221 221 221 218 212 207 203 199 200 204 206
207 207 202 195 194 194 193 195 199 200 200 200 198 198 200 201 202 204 205 208 212 214 212 213 215 218 220 222 224 226 228 230 232 234 236 233 227 223 223 223 225 230 233 235 237 238 238 239 238 235 235 234 231 231 229 223 219 219 220 219 220 224 226 224 221 223 222 220 221 223 222 221 219 218 219 218 218 219 216 210 205 200 203 206 204
204 205 203 195 192 194 195 196 200 202 202 201 199 199 199 199 199 201 203 207 211 213 214 214 214 216 219 222 225 227 228 230 232 234 236 235 232 227 222 222 226 230 233 235 238 240 241 242 243 241 240 238 234 234 232 227 222 222 220 219 221 226 228 224 222 223 222 219 218 219 220 219 217 217 218 217 216 217 216 212 207 204 205 205 203
199 201 201 195 192 194 195 197 200 202 203 202 201 201 199 198 199 199 201 205 207 211 215 216 217 218 219 220 224 227 228 229 232 236 237 236 235 230 225 224 228 231 234 237 238 240 242 243 244 246 245 243 239 236 235 233 228 224 223 224 227 230 229 226 225 225 224 221 217 216 217 217 216 216 217 217 218 216 213 211 209 207 207 205 206
193 195 197 195 192 193 195 197 199 202 204 202 200 200 199 198 199 198 199 203 205 207 212 216 220 222 222 222 226 228 229 230 232 235 238 238 237 234 230 230 231 232 233 237 238 240 242 243 245 247 247 248 246 241 239 238 233 228 227 230 233 233 230 228 227 225 224 221 215 212 212 213 213 213 213 214 216 214 210 209 209 209 208 208 214
187 189 192 193 192 193 195 197 198 200 203 201 198 197 196 197 198 198 198 200 202 204 208 212 217 223 226 228 229 231 233 234 235 236 238 238 238 236 235 235 234 231 231 235 238 240 243 245 248 249 249 250 250 246 243 241 237 234 233 232 234 234 231 229 228 224 220 217 212 209 209 208 208 209 208 209 211 209 208 207 207 207 206 207 219
184 184 187 190 191 194 196 197 197 199 201 198 196 196 195 195 197 197 196 198 200 202 204 207 212 220 226 229 232 235 238 241 243 244 246 245 244 242 240 239 236 233 231 234 238 241 243 245 248 249 251 252 252 251 249 245 242 239 237 234 233 232 231 229 227 223 218 213 209 207 207 206 205 205 205 205 205 205 207 207 205 205 205 207 215
177 179 183 187 191 195 197 196 194 195 198 195 192 193 193 194 196 195 194 196 198 200 202 204 209 215 222 229 235 238 241 245 250 255 258 255 250 247 245 242 239 235 233 235 239 243 245 247 249 250 252 254 254 253 251 249 246 242 240 236 232 230 229 227 226 222 217 212 209 208 206 205 204 203 201 199 198 199 202 202 201 203 207 209 212
165 171 178 184 191 195 197 195 191 192 194 191 189 190 191 193 196 194 192 194 198 200 201 203 209 214 220 226 231 235 241 246 250 261 271 263 254 250 247 244 242 239 236 236 239 243 246 248 250 251 252 254 255 254 252 252 250 246 241 237 231 228 226 225 224 222 219 216 211 209 207 205 202 200 196 194 193 194 194 194 196 200 202 199 196
155 167 176 185 192 195 195 192 188 187 188 188 189 191 191 193 195 192 191 194 196 197 200 205 211 218 222 222 223 230 235 227 170 88 45 12 324 296 277 266 260 253 248 247 248 249 250 252 253 255 256 257 257 257 257 256 254 248 243 237 232 228 226 224 223 221 220 219 213 209 207 202 196 194 191 191 192 192 191 190 192 194 194 188 184
162 172 180 185 189 191 190 186 182 183 184 184 186 189 192 195 191 185 191 199 198 196 201 204 208 214 217 214 211 214 197 84 67 42 14 0 345 332 320 302 287 279 272 267 264 262 261 261 261 263 264 264 263 262 261 259 256 251 245 240 235 230 228 227 226 223 222 220 213 205 200 195 191 189 189 189 190 188 187 188 188 186 184 181 177
168 176 182 181 180 183 181 177 178 176 158 132 121 137 174 188 176 155 153 171 180 179 169 152 134 116 99 80 69 73 68 52 33 15 7 0 349 342 332 303 281 272 269 269 271 272 271 268 266 265 264 263 263 262 261 260 258 255 250 244 238 233 229 228 226 224 222 219 210 199 193 190 189 186 184 184 185 184 184 183 180 177 177 177 173
173 176 177 167 165 172 169 165 174 169 141 117 102 95 101 123 137 133 127 129 137 139 127 114 104 97 90 77 69 75 77 65 50 41 34 21 12 6 356 343 328 308 291 281 277 275 272 270 268 266 263 261 259 259 258 258 256 254 251 247 240 234 231 229 226 223 222 220 211 198 190 187 185 183 180 177 175 177 178 176 172 172 175 175 172
143 143 137 133 149 165 155 122 114 134 132 122 110 99 92 91 97 102 103 105 107 106 103 100 96 94 93 89 87 86 81 71 55 40 29 21 14 4 355 350 345 334 325 316 301 285 277 271 268 268 268 267 265 264 263 261 257 253 250 247 240 234 231 228 224 219 216 214 209 197 189 187 185 182 178 172 167 167 170 171 173 176 176 175 172
95 85 80 87 101 118 114 98 94 111 121 119 113 107 100 92 88 89 92 94 95 95 97 96 93 90 88 87 85 77 65 49 32 24 20 15 5 356 353 354 350 341 336 337 328 310 296 283 277 278 279 275 273 273 272 269 265 259 253 247 241 235 230 225 221 215 210 206 202 194 189 188 185 179 174 167 162 163 166 170 176 180 177 174 172
89 83 80 83 85 85 85 87 93 104 113 118 119 117 114 110 104 98 97 96 95 95 93 88 83 80 76 72 68 58 47 35 23 18 14 9 0 352 351 355 355 349 347 346 333 317 307 295 286 283 281 278 279 280 278 276 274 269 261 254 247 242 237 229 221 214 207 201 197 193 190 187 180 173 168 164 162 163 166 170 176 178 174 172 172
88 90 88 86 86 84 81 80 81 84 88 93 98 103 113 122 125 122 118 112 107 103 95 81 71 65 61 58 53 41 29 21 18 16 12 6 359 352 351 357 359 351 344 338 324 310 304 297 290 286 282 281 284 285 282 280 280 277 271 265 258 251 245 233 221 215 208 199 191 186 184 180 174 167 163 161 162 165 168 170 173 174 171 169 170
90 95 98 99 98 95 90 85 81 80 80 82 84 89 99 110 114 116 119 119 120 118 108 91 74 60 51 49 42 30 18 13 16 16 9 360 356 354 355 358 354 340 334 329 318 310 304 299 295 293 288 285 285 284 282 281 280 278 276 274 268 259 248 235 223 214 203 189 181 177 176 174 171 166 163 162 163 165 167 170 173 173 170 168 168
111 109 104 101 99 96 92 87 83 79 80 84 89 90 91 97 100 98 91 87 94 106 105 100 96 81 62 45 30 22 20 13 10 10 5 360 1 2 2 358 346 335 331 328 322 318 314 309 305 300 294 288 286 285 283 282 282 280 278 276 272 265 254 240 226 212 194 177 170 170 171 170 168 165 162 161 162 164 166 169 172 172 172 170 168
108 110 108 103 99 96 93 88 85 83 84 88 92 89 85 86 92 94 89 82 77 81 87 93 105 103 76 36 14 14 20 19 11 11 12 10 7 6 3 356 346 336 331 331 332 330 324 321 318 312 303 297 293 291 291 289 287 284 281 276 272 268 259 238 212 190 175 165 163 167 169 168 165 162 159 156 158 162 165 167 169 170 173 173 172
81 87 98 102 100 96 93 90 89 87 83 81 83 85 85 85 83 85 88 86 78 76 84 91 103 101 79 31 4 5 12 17 15 15 13 5 2 7 6 357 347 338 330 332 336 335 331 330 331 327 320 313 308 306 306 304 298 293 287 277 264 262 260 231 186 166 163 167 169 169 167 164 160 158 157 155 157 160 164 166 167 167 171 175 178
82 83 86 87 87 85 81 80 82 84 83 80 75 70 73 79 80 81 88 88 82 81 88 92 92 90 74 33 9 6 6 6 6 8 6 357 351 356 1 353 345 339 334 335 340 342 338 337 339 338 336 333 330 328 326 323 322 328 328 306 263 225 191 162 151 149 153 156 149 141 142 145 147 151 153 154 155 158 161 165 168 169 171 176 180
90 90 87 85 87 86 81 76 74 75 76 75 71 66 63 63 63 67 75 80 83 83 78 90 104 102 72 36 23 12 359 348 346 352 358 355 349 349 349 347 346 343 338 338 345 348 345 344 346 346 346 348 351 351 349 349 358 18 37 54 74 90 98 105 108 110 115 119 121 123 129 137 143 149 154 156 158 158 160 164 169 173 175 178 180
94 94 91 90 96 97 92 84 80 80 79 74 68 68 73 72 70 77 82 82 91 97 70 78 106 103 65 36 26 13 356 340 338 348 354 351 347 345 342 342 349 348 340 337 343 348 349 349 350 350 351 357 6 10 7 9 15 20 37 76 95 96 92 89 89 91 98 108 119 129 136 143 148 151 155 158 159 159 159 162 169 175 178 180 181
87 84 78 66 63 70 74 70 67 71 75 72 62 57 68 75 77 97 106 86 74 87 73 72 87 82 48 27 20 9 354 343 345 355 354 347 344 343 340 340 346 346 340 335 338 344 350 352 352 355 359 5 14 21 19 22 32 32 26 45 83 103 112 116 117 119 120 123 127 132 138 144 149 150 151 154 157 160 162 165 167 173 178 182 184
85 83 77 66 58 56 56 57 58 58 59 58 50 41 42 45 40 37 42 37 25 18 27 43 53 50 29 17 10 3 357 353 355 358 354 346 344 341 338 339 344 342 338 335 337 344 352 355 355 3 11 14 22 32 32 34 48 53 45 46 62 81 98 110 119 126 130 131 132 136 140 143 145 146 149 154 158 160 164 168 168 168 173 178 177
71 71 70 66 64 61 54 52 55 56 56 60 58 47 43 43 37 31 32 31 23 18 19 22 22 21 19 12 4 0 359 355 354 355 353 347 344 342 342 346 346 338 334 336 341 350 4 12 14 22 30 31 34 48 59 64 72 75 70 71 77 83 90 99 108 117 124 128 133 141 146 149 151 149 146 150 157 160 164 171 166 156 156 162 165
65 65 62 58 57 55 48 42 43 46 46 48 51 46 42 40 36 30 28 25 20 17 17 16 13 14 15 10 6 6 2 355 354 358 355 348 346 348 350 350 348 342 340 345 350 358 15 37 47 52 56 57 60 71 81 86 93 98 95 93 93 96 102 110 115 122 128 133 138 143 147 151 155 153 146 146 155 159 158 158 154 146 145 152 159
62 61 59 56 54 52 47 43 43 45 43 42 44 43 40 37 34 31 29 24 20 16 16 15 13 11 9 7 6 7 4 360 360 360 355 350 356 5 359 350 348 349 350 358 17 36 56 80 87 82 76 73 74 81 88 93 99 102 101 102 106 109 116 125 130 134 137 138 138 140 141 141 147 152 150 149 152 153 150 148 147 146 148 153 157
62 60 58 56 55 54 51 47 46 47 46 45 44 43 41 38 35 32 28 26 23 21 18 17 15 12 8 6 4 3 2 3 5 2 355 352 6 25 16 359 352 355 6 25 45 52 67 90 100 97 92 88 86 87 91 97 102 103 103 107 112 117 123 130 135 138 139 137 136 138 138 135 137 142 147 148 146 143 145 151 153 153 157 160 161
63 62 61 59 57 55 53 51 49 49 49 50 48 46 43 40 38 35 32 29 27 26 24 21 19 16 13 11 8 7 6 6 7 5 1 0 10 27 26 14 7 6 15 31 46 58 79 95 98 96 96 99 101 102 102 102 106 111 115 118 120 123 127 133 136 137 137 138 140 141 141 140 141 143 147 150 148 142 144 154 162 164 165 167 170
62 63 63 62 61 59 55 53 52 51 51 51 51 48 45 41 39 38 37 35 33 32 29 26 23 21 19 17 15 14 13 12 8 5 6 11 16 19 18 24 37 37 38 70 105 105 100 95 89 85 87 92 102 110 113 114 118 121 123 123 124 127 131 133 134 134 137 141 144 142 140 141 146 149 151 151 151 153 155 159 165 170 170 170 173
60 60 60 62 64 63 60 56 55 53 52 54 53 50 47 44 42 40 38 37 36 34 32 30 30 29 27 25 23 20 18 16 12 8 11 20 28 31 32 44 62 72 90 109 112 103 91 86 83 82 83 89 97 106 113 121 127 130 130 130 131 136 139 136 130 128 134 143 149 148 145 142 143 150 154 152 151 163 173 170 169 173 174 172 177
60 59 59 59 63 66 66 63 59 54 52 53 54 51 48 45 43 41 40 38 37 34 32 31 32 32 30 30 29 27 25 24 23 21 23 30 38 43 46 50 54 70 105 118 115 101 91 92 93 89 87 91 95 96 106 126 132 130 130 132 135 138 141 140 135 133 136 140 141 143 144 140 138 146 155 156 156 168 177 172 166 167 169 172 182
Height
734 736 739 742 745 748 751 754 758 761 764 767 770 772 775 777 780 783 785 787 789 791 793 794 796 798 800 803 804 806 808 809 811 812 813 814 816 817 818 820 821 822 823 824 825 826 827 828 829 830 831 833 834 836 837 837 838 838 840 841 841 842 842 842 842 842 842 843 844 844 845 845 847 848 849 849 850 850 851 852 852 853 853 853 853
728 731 734 737 739 742 746 749 753 757 760 763 765 768 771 773 776 779 781 783 785 787 789 791 793 795 797 799 801 803 805 806 808 809 810 811 812 814 816 817 818 819 820 821 822 823 824 825 826 827 829 830 832 833 834 835 835 836 837 838 839 839 840 840 841 841 842 842 842 843 843 844 844 845 847 847 848 848 849 850 850 850 851 851 851
724 727 730 733 735 738 742 745 749 752 756 758 761 764 766 769 773 775 777 780 782 784 786 788 790 792 794 796 798 799 801 803 804 805 806 807 809 810 812 813 814 815 816 817 818 819 820 821 823 824 826 827 829 830 831 832 833 833 834 835 836 837 838 839 839 839 840 840 841 841 842 842 843 843 844 845 846 846 847 847 848 848 848 849 849
720 723 727 730 732 735 738 741 744 747 751 753 756 759 762 765 768 771 774 776 778 780 783 785 787 789 790 792 794 796 797 799 801 802 803 804 805 806 808 810 811 812 813 814 815 816 817 818 819 821 823 824 825 827 828 829 830 830 831 832 833 834 836 836 837 838 838 839 839 839 840 840 841 842 842 843 844 845 845 845 845 846 846 846 847
715 718 722 726 729 732 735 738 740 743 746 749 752 755 759 761 764 767 770 773 775 777 779 781 783 785 786 788 790 791 793 795 796 798 799 800 801 803 804 806 807 808 809 810 811 812 813 814 816 818 819 821 822 823 825 826 827 828 828 829 830 831 833 834 834 835 836 836 837 837 838 838 839 839 840 841 842 842 843 843 843 844 844 844 845
711 714 718 721 724 728 731 734 737 740 743 746 749 752 755 758 760 763 765 768 771 773 775 777 779 781 782 784 786 787 789 791 793 794 796 797 799 800 801 803 804 805 806 807 808 809 810 812 813 814 816 817 818 820 821 823 824 825 825 825 827 828 829 830 831 832 833 834 834 835 835 835 836 836 837 838 839 839 840 841 841 841 842 842 843
707 710 714 717 720 723 726 730 733 736 739 742 745 748 751 754 756 758 761 764 767 769 770 772 774 777 778 780 782 784 786 788 790 791 793 794 796 797 798 800 800 801 803 804 806 807 808 809 810 811 812 813 814 816 818 819 821 821 822 823 824 825 826 827 828 829 830 831 832 832 832 832 833 833 834 835 836 837 837 838 838 838 839 839 840
703 706 710 712 715 718 721 725 728 731 734 737 741 744 747 750 752 755 757 760 762 764 766 768 770 772 774 776 778 781 783 784 786 788 789 791 793 794 795 796 797 798 799 800 802 804 805 806 807 808 808 809 810 812 813 815 816 817 818 819 820 821 822 823 824 825 826 827 828 829 829 830 830 830 831 832 833 833 833 834 834 835 835 836 837
700 703 705 707 710 713 717 720 723 727 730 733 736 739 742 746 748 751 753 755 758 761 762 764 766 768 770 772 775 777 779 780 781 783 785 787 789 790 791 792 793 794 795 796 798 799 801 802 803 804 804 805 806 807 808 809 810 811 812 814 815 816 818 819 820 821 822 822 823 824 826 826 826 826 827 827 827 828 829 831 832 832 832 833 833
696 698 701 703 707 710 713 716 719 723 726 728 732 735 739 742 745 747 749 751 754 756 759 761 762 764 766 768 771 773 774 775 776 778 780 782 784 785 786 788 789 790 791 792 794 795 796 798 798 799 800 800 802 803 804 804 804 804 806 808 809 811 813 814 815 815 817 817 818 819 820 820 821 821 822 822 823 825 826 828 828 829 830 830 830
691 694 697 700 704 707 709 712 715 718 721 724 728 731 735 738 740 743 745 747 750 752 755 757 759 760 762 764 766 767 768 769 770 772 774 776 778 780 781 783 784 786 787 788 789 790 792 793 794 795 795 795 797 798 799 799 799 800 802 803 804 805 806 808 808 810 811 812 812 814 814 814 815 816 817 818 820 821 822 823 825 826 827 827 827
687 690 693 697 701 703 706 708 711 714 717 720 723 726 730 733 736 738 740 742 745 748 750 752 754 756 758 759 761 762 762 764 765 767 769 770 772 774 776 778 780 781 782 783 784 785 786 787 788 789 789 790 791 792 793 794 795 796 798 799 799 799 800 800 801 803 804 806 807 807 807 808 810 811 812 813 815 816 817 819 820 822 823 823 823
684 686 689 693 696 699 703 705 708 710 713 716 720 723 726 728 730 733 735 738 741 743 745 747 749 752 754 755 756 757 758 760 761 762 764 765 767 769 771 773 774 775 776 777 779 779 780 781 782 783 784 784 785 786 787 788 790 791 793 793 793 793 794 794 795 796 798 799 800 800 801 803 804 804 806 808 809 811 812 814 815 817 818 819 819
681 683 685 689 692 696 699 702 705 708 710 714 716 719 721 723 725 729 732 735 737 738 740 742 745 748 749 751 752 752 754 755 757 758 759 761 763 765 767 768 769 770 771 772 772 773 774 775 776 777 779 779 779 779 780 782 784 785 787 787 787 788 789 790 790 792 793 795 795 795 796 798 798 799 801 803 804 805 806 808 810 812 813 815 816
678 680 682 685 689 692 695 699 702 705 708 711 713 715 717 719 722 726 728 731 732 733 736 739 741 743 745 747 748 748 750 751 752 754 755 757 759 761 763 764 765 765 766 766 767 768 769 771 771 772 773 773 773 773 775 777 779 780 781 782 783 784 784 784 784 786 788 789 789 790 791 793 795 796 798 799 800 801 802 803 805 808 810 812 814
675 677 679 682 685 689 692 696 699 702 705 707 709 711 714 716 720 722 725 727 729 731 733 735 737 739 741 743 744 745 746 747 748 749 750 753 755 757 758 760 761 761 761 762 762 763 765 766 766 767 768 768 768 769 771 774 776 776 777 778 779 780 779 779 779 781 782 783 784 786 787 789 791 793 795 796 796 798 800 801 803 805 807 809 810
672 674 676 679 682 685 689 692 696 699 702 704 705 708 710 714 717 719 722 724 726 728 730 731 733 735 737 738 739 740 742 743 744 744 746 748 751 752 753 755 757 757 756 757 758 759 760 761 761 762 762 762 764 765 767 770 771 771 772 773 774 774 772 772 774 775 776 778 779 781 783 785 787 789 791 792 793 795 796 797 799 801 803 805 807
669 671 674 676 679 683 686 690 693 696 698 700 702 705 708 711 714 716 719 721 722 725 726 728 730 731 732 734 735 736 737 739 740 741 742 743 745 746 748 751 752 751 751 753 755 756 756 756 756 756 756 757 759 760 762 763 764 765 766 766 767 765 763 764 766 767 769 772 774 776 778 781 783 785 786 788 790 791 791 792 794 797 799 801 802
666 669 672 674 678 681 684 687 691 693 695 697 699 701 704 707 710 713 715 717 719 721 723 724 725 727 728 730 731 732 734 735 736 737 737 739 741 742 745 747 747 746 747 750 751 752 753 752 752 752 752 753 755 755 755 756 757 757 757 759 759 755 752 756 759 760 761 764 767 769 772 774 777 779 781 783 785 786 787 788 790 792 794 795 797
664 668 671 673 676 679 682 685 688 690 693 695 696 699 701 704 707 709 712 714 716 718 719 720 721 723 725 727 728 729 730 731 732 732 733 736 737 739 742 742 742 743 745 748 749 749 749 749 748 748 748 749 750 750 750 750 749 749 750 750 748 745 746 752 755 754 755 757 759 762 765 767 770 773 775 777 779 781 782 783 784 786 788 790 792
663 666 669 671 674 677 679 683 685 688 691 692 694 697 698 701 703 705 708 711 712 714 716 717 718 720 721 723 724 725 726 727 728 729 730 732 734 736 738 738 739 742 744 745 745 745 744 744 744 744 744 745 746 746 745 744 744 744 744 741 738 739 745 749 750 751 753 753 755 758 760 762 764 765 767 769 771 773 776 777 779 781 784 787 790
661 664 667 669 672 675 677 680 683 686 688 690 692 694 696 698 700 702 705 707 709 711 713 714 716 717 718 720 721 722 723 724 725 725 727 728 730 732 733 734 737 739 741 741 740 739 739 739 739 739 740 740 741 742 741 740 740 740 738 736 737 740 744 746 747 749 750 749 750 752 753 755 756 758 759 761 763 766 769 771 775 778 782 786 791
659 662 665 668 670 673 676 678 681 683 686 688 690 692 694 696 698 699 702 704 706 708 710 712 714 715 716 717 718 719 720 721 722 722 723 725 727 728 729 730 732 734 735 735 734 734 734 734 734 735 736 735 736 736 736 735 735 734 733 734 736 739 741 742 744 744 744 744 745 745 745 746 748 750 752 754 756 760 763 767 771 775 778 783 788
658 660 663 666 669 672 674 676 679 681 683 686 688 690 692 693 695 697 699 701 703 705 707 710 711 712 714 715 716 717 718 719 720 720 721 723 724 725 725 726 727 729 729 729 729 729 729 729 729 730 731 730 730 730 729 729 728 727 727 729 733 735 736 737 737 738 738 738 737 737 737 738 740 742 745 749 753 758 762 765 767 770 773 777 782
656 659 662 665 668 671 673 675 677 679 682 684 686 688 690 691 693 695 696 698 700 702 705 707 709 711 712 713 714 716 716 717 719 719 720 721 721 721 721 722 723 724 725 725 725 725 725 725 726 726 726 725 724 723 722 721 720 719 719 722 725 727 727 728 729 731 730 729 728 729 730 731 733 736 739 744 749 753 758 762 764 766 769 773 777
656 659 662 664 667 670 671 673 676 678 681 683 684 686 688 690 691 693 694 696 698 700 703 705 707 709 710 711 713 714 715 716 718 718 718 718 718 719 719 720 721 722 722 721 721 721 722 723 722 722 721 720 718 717 715 713 712 711 712 713 715 716 717 718 720 720 720 720 721 722 724 726 729 733 736 740 743 745 749 755 759 762 765 768 772
656 659 662 664 666 668 670 672 675 677 680 682 683 685 687 688 690 692 693 695 696 698 701 703 705 706 708 709 710 711 713 715 716 716 716 717 718 719 719 720 721 721 721 721 720 719 720 720 719 718 717 715 714 711 709 707 706 705 705 706 706 706 706 708 709 709 710 711 714 717 720 724 728 731 733 735 737 738 741 746 751 755 759 762 765
657 659 662 664 666 667 669 671 673 676 679 680 682 683 684 686 689 690 692 694 695 697 699 701 703 704 705 707 708 710 712 713 714 715 716 717 718 719 719 719 720 720 720 719 718 718 718 717 716 714 713 712 710 707 704 703 702 701 700 699 698 699 701 702 702 702 703 706 708 712 717 720 723 725 728 731 734 735 737 741 745 750 754 758 759
657 659 661 663 666 667 669 671 673 675 678 679 680 681 682 684 686 688 690 692 694 695 697 699 701 703 704 706 708 709 711 713 714 715 716 716 717 717 717 718 718 717 717 717 715 715 715 714 712 710 709 708 706 703 700 698 698 697 696 694 694 695 697 696 695 697 700 702 703 706 710 713 716 719 721 725 730 734 737 740 743 746 751 754 755
658 660 661 663 665 667 669 671 673 674 676 678 680 681 683 685 686 687 690 692 693 694 696 698 700 702 704 706 708 709 711 713 714 715 715 715 715 715 715 716 716 715 715 714 713 712 712 710 708 706 704 703 700 696 693 692 692 691 690 690 690 690 690 689 690 693 697 699 699 698 700 704 709 711 714 717 722 729 734 737 740 742 746 749 750
659 660 661 663 665 668 670 672 672 674 676 678 680 682 684 687 688 689 691 692 693 694 696 698 700 702 704 706 708 710 711 713 714 714 714 714 714 714 713 713 712 711 710 710 710 710 709 707 705 703 702 700 696 692 689 688 686 684 682 681 681 680 680 679 680 682 687 690 691 691 692 697 701 705 708 712 716 722 729 734 738 741 743 744 746
661 662 663 664 666 668 670 672 673 675 676 678 680 682 684 687 690 691 692 693 694 695 697 699 701 702 704 706 708 709 711 712 712 713 713 713 712 712 712 711 710 708 707 706 706 706 706 705 703 701 700 697 693 690 687 684 681 678 676 674 670 667 664 663 664 668 672 674 677 680 683 688 694 699 704 708 712 717 723 728 735 740 742 742 744
663 665 666 666 668 670 672 673 675 676 677 679 680 681 684 687 689 692 693 694 696 697 699 700 702 703 705 706 707 709 710 710 711 711 711 711 710 710 710 710 708 706 705 705 704 703 703 702 699 697 696 693 690 687 684 680 677 674 670 666 661 657 655 655 658 662 662 662 665 670 676 681 685 690 697 702 706 712 717 723 730 736 739 741 743
666 667 668 669 671 673 674 676 677 677 678 679 680 682 685 687 689 691 693 696 697 699 700 702 703 704 705 706 707 708 709 709 710 710 710 710 709 709 708 708 707 705 704 704 702 701 700 698 696 693 691 688 686 684 680 676 673 670 665 660 655 652 651 652 653 652 650 649 652 659 667 675 679 682 687 694 700 707 712 716 723 729 733 736 739
669 671 672 672 674 676 677 679 679 679 679 680 682 684 686 688 690 692 693 695 697 699 700 702 703 704 706 707 707 708 709 709 710 710 710 709 709 708 707 706 706 705 703 702 701 699 697 695 693 690 688 685 682 679 675 671 668 664 660 656 651 647 645 643 641 639 638 638 642 650 660 668 673 677 681 688 696 703 708 712 718 723 727 731 734
673 674 675 676 678 679 680 681 681 681 682 683 685 687 688 689 691 692 693 695 696 698 700 702 703 705 707 708 709 710 710 710 710 709 709 709 708 707 707 706 706 705 703 702 700 698 696 694 691 688 685 681 678 674 670 666 662 658 655 651 647 643 639 635 634 634 632 630 635 646 656 663 668 672 678 686 694 701 706 711 716 721 725 728 731
675 677 678 680 681 682 683 683 683 684 685 686 687 689 689 690 691 692 694 696 697 698 700 702 704 706 708 709 710 710 709 709 709 709 708 708 707 707 707 706 706 705 703 701 699 697 695 693 690 686 683 679 675 670 666 662 658 654 649 645 642 639 636 632 631 634 636 636 638 645 653 659 663 668 674 683 692 699 706 711 716 721 724 727 730
677 678 679 681 682 683 684 684 685 686 687 688 689 690 690 691 692 693 695 697 698 700 702 703 705 707 709 710 710 709 708 708 708 707 707 707 707 706 706 705 705 704 702 701 699 696 693 691 688 685 681 677 673 669 665 660 654 649 644 640 637 635 633 631 630 632 637 643 645 646 649 654 661 667 672 679 688 696 703 710 716 721 725 728 731
679 679 680 681 682 683 684 685 686 687 689 690 691 692 692 693 694 695 696 698 700 702 703 705 706 708 709 710 709 708 707 706 706 706 706 706 706 705 704 704 704 703 701 700 698 695 693 690 688 685 681 677 673 670 665 659 653 647 642 639 637 636 634 635 636 637 641 645 648 650 653 659 667 674 679 683 689 695 701 708 714 718 723 727 730
680 681 682 682 683 685 686 687 688 689 690 691 693 695 696 697 698 698 699 701 703 704 704 705 706 708 709 709 708 707 706 706 705 705 705 705 705 704 704 703 702 701 700 698 697 695 693 690 688 685 682 679 675 671 667 661 656 650 644 640 639 640 641 643 644 646 647 649 653 658 664 670 677 684 688 690 694 697 701 706 712 717 721 724 727
681 682 683 684 685 686 687 688 689 690 692 694 696 698 699 700 701 702 703 703 704 705 705 705 706 707 707 707 706 705 705 705 705 705 705 705 704 704 703 702 701 700 699 697 696 694 693 691 689 686 684 681 677 674 670 665 661 657 653 647 642 642 644 648 651 653 655 659 664 669 673 678 684 689 693 695 697 700 703 708 713 717 720 723 726
683 684 684 685 686 687 688 690 691 693 694 696 698 700 701 702 703 704 704 704 704 704 704 704 705 705 705 705 705 705 705 705 706 705 705 705 704 703 703 702 701 700 699 697 696 694 693 691 690 688 685 683 680 676 673 670 666 664 662 659 652 648 646 647 651 655 661 667 672 676 681 685 689 693 696 698 701 703 706 710 714 717 720 722 725
685 686 687 688 689 690 692 693 695 696 697 699 701 702 702 703 704 705 705 705 705 704 703 703 703 704 704 705 706 706 706 706 705 705 704 704 704 703 702 701 701 700 699 698 696 695 693 692 690 688 686 684 682 680 677 675 672 671 670 668 664 661 659 656 655 658 663 669 675 681 686 690 693 696 699 701 703 706 709 712 714 717 719 721 724
687 689 690 692 693 695 696 697 698 700 701 702 703 704 704 705 706 707 707 707 707 706 705 705 704 705 706 707 707 707 706 705 705 704 703 703 703 703 702 701 701 700 699 698 696 695 693 691 690 689 687 686 684 683 681 679 677 677 677 675 673 671 671 669 668 667 669 673 679 685 689 693 696 699 701 703 705 708 711 713 715 717 718 720 723
692 693 695 696 698 699 701 702 703 704 705 705 706 707 708 709 709 709 709 709 709 710 709 709 708 708 708 708 708 707 706 705 704 704 703 703 703 702 702 701 701 701 700 698 696 695 693 691 691 690 689 687 686 685 684 683 681 681 681 681 680 679 678 678 678 678 679 681 685 689 693 696 699 701 703 706 708 711 713 714 715 717 719 722 724
697 698 700 702 704 705 707 708 709 709 710 710 711 711 712 713 713 713 714 714 715 715 714 713 712 711 711 710 709 708 707 706 705 704 704 704 703 702 701 701 701 701 700 699 697 695 693 692 691 691 690 689 688 687 686 686 685 685 685 684 684 684 684 685 685 686 687 688 691 694 697 699 701 704 706 709 711 713 714 715 716 718 720 723 725
702 704 706 708 709 710 712 713 714 714 715 716 716 716 717 718 718 718 719 719 720 719 718 716 716 715 713 712 711 709 708 707 706 706 705 705 703 702 701 701 701 701 701 699 698 697 695 694 692 692 691 690 689 689 689 688 688 688 689 689 689 689 690 691 691 692 693 694 696 698 700 701 703 706 708 710 712 713 714 716 718 719 722 724 726
707 709 711 712 713 715 716 717 718 719 720 721 721 722 722 722 723 723 723 723 723 722 721 720 719 718 716 715 713 711 709 709 708 708 707 705 704 703 702 701 701 702 702 701 700 698 697 696 695 694 693 692 692 691 691 691 691 691 692 692 693 693 694 695 696 697 698 699 700 701 703 704 706 708 709 711 712 714 716 717 719 721 722 724 726
713 714 715 717 718 720 721 722 723 724 725 726 726 726 727 727 727 727 727 726 725 724 723 723 722 721 719 717 714 713 711 711 711 710 709 706 705 704 703 702 702 702 702 702 701 700 699 698 698 697 696 695 695 694 694 694 694 694 695 695 696 697 698 699 699 700 701 702 703 704 705 706 708 710 711 712 714 715 717 719 720 721 723 725 726
718 719 720 721 723 724 726 727 727 729 730 730 731 731 731 731 730 729 728 728 727 727 727 726 725 723 721 719 717 716 715 714 714 712 710 708 706 705 704 704 704 703 703 703 703 703 702 701 700 700 700 699 698 698 697 697 697 697 697 698 699 700 700 701 702 703 704 705 706 707 708 709 710 711 712 714 715 717 719 720 721 722 724 725 726
723 724 725 726 727 728 730 731 732 733 734 734 735 735 734 733 733 732 732 731 731 730 730 729 727 726 724 723 722 721 720 718 716 714 712 709 708 706 705 705 706 706 705 705 705 705 704 703 702 702 702 702 701 701 700 700 700 700 700 701 701 702 702 703 704 705 707 708 709 709 710 711 712 713 714 716 717 719 720 721 722 723 724 726 727